Temp
18 18 17 17 16 16 16 16 16 16 16 16 16 16 16 16 16 16 15 15 15 15 15 14 14 14 14 14 13 13 13 13 13 13 12 12 12 12 12 12 12 12 12 12 11 11 11 11 10 10 10 10 10 9 9 9 8 8 8 8 8 7 7 6 6 5 5 5 5
17 17 17 17 16 16 16 16 16 16 16 16 16 16 16 16 16 15 15 15 15 15 14 14 14 14 14 13 13 13 13 13 13 12 12 12 12 12 12 12 12 12 12 11 11 11 11 10 10 10 10 10 9 9 9 8 8 8 8 8 7 7 6 6 5 5 5 4 4
17 17 16 16 16 16 16 16 16 16 16 16 16 15 15 15 15 15 15 15 15 14 14 14 14 14 14 13 13 13 13 13 12 12 12 12 12 12 12 12 12 11 11 11 11 10 10 10 10 10 10 9 9 9 9 8 8 8 8 7 7 7 6 6 5 5 5 4 4
16 16 16 16 16 16 16 16 16 16 16 16 16 16 15 15 15 15 15 14 14 14 14 14 14 14 13 13 13 13 12 12 12 12 12 12 12 12 12 12 11 11 11 11 10 10 10 10 10 9 9 9 9 9 9 9 8 8 7 7 7 7 6 6 6 6 5 5 5
17 16 16 16 16 16 16 16 16 16 16 16 16 16 15 15 15 15 14 14 14 14 14 14 13 13 13 13 13 12 12 12 12 12 12 12 12 12 11 11 11 11 11 10 10 10 10 9 9 9 9 9 9 9 9 9 8 7 7 7 7 7 6 7 6 6 6 6 5
17 17 16 16 15 15 15 16 16 16 16 15 15 15 15 15 15 15 14 14 14 14 14 14 13 13 13 13 12 12 12 12 12 12 12 11 11 11 11 11 11 11 11 10 10 10 10 9 9 9 9 9 9 9 9 9 8 7 7 7 7 7 7 7 7 7 6 6 6
17 17 17 16 16 16 16 15 15 15 15 15 15 15 15 15 15 15 14 14 14 14 14 14 13 13 13 12 12 12 12 12 12 12 11 11 11 11 11 11 11 11 10 10 10 10 10 9 9 9 8 8 9 9 9 9 8 8 8 7 7 7 7 7 7 7 7 7 7
17 17 17 17 17 16 16 16 16 15 15 15 15 15 15 15 14 14 14 14 14 14 14 13 13 13 13 13 12 12 12 12 12 12 11 11 11 11 11 11 11 11 10 10 10 10 10 9 9 9 9 9 9 9 9 9 9 8 8 8 8 8 7 7 7 7 7 7 7
17 17 17 17 16 16 16 16 16 15 15 15 15 15 14 14 14 14 14 14 14 13 13 13 13 13 13 12 12 12 12 12 12 11 11 11 11 11 11 11 11 10 10 10 10 10 10 9 9 9 9 8 9 9 9 8 8 8 8 8 8 8 8 7 7 7 7 7 7
17 17 17 16 16 16 16 16 16 15 15 15 15 14 14 14 14 14 14 13 13 13 13 13 13 12 12 12 12 12 12 12 11 11 11 11 11 11 11 11 10 10 10 10 10 10 9 9 9 9 8 8 8 8 8 8 8 8 7 7 7 8 8 7 7 7 7 7 7
17 16 16 16 16 16 16 16 16 15 15 15 15 14 14 14 14 14 13 13 13 13 13 13 12 12 12 12 12 12 12 11 11 11 11 11 11 11 11 11 10 10 10 10 10 10 10 9 9 9 8 8 8 8 8 8 7 7 7 7 7 7 7 7 7 7 7 7 7
16 16 16 16 16 16 16 16 15 15 15 15 15 15 14 14 14 14 14 13 13 13 13 13 12 12 12 12 12 12 12 11 11 11 11 11 11 11 11 11 10 10 10 10 10 10 9 9 9 9 8 8 8 8 8 7 7 7 6 6 6 6 7 7 7 7 7 7 6
16 16 16 16 15 15 15 15 15 15 15 15 15 15 14 14 14 14 14 13 13 13 13 13 12 12 12 12 12 11 11 11 11 11 11 11 11 11 11 11 10 10 10 10 10 9 9 9 9 9 8 8 8 7 7 7 7 7 7 6 6 6 6 6 6 6 6 6 6
16 15 15 15 15 15 15 15 15 15 15 15 15 14 14 14 14 14 14 13 13 13 12 12 12 12 11 11 11 11 11 11 11 11 11 10 10 10 10 10 10 10 10 10 9 9 9 8 8 8 8 8 7 7 7 7 7 7 7 6 6 6 6 6 6 6 6 5 5
15 15 15 15 15 15 15 15 15 15 15 15 14 14 14 14 14 13 13 13 12 12 12 11 11 11 11 11 11 11 11 11 11 11 10 10 10 10 10 10 10 10 9 9 8 8 8 8 8 8 7 7 7 7 7 6 6 6 6 6 6 6 6 6 5 5 5 5 5
15 15 15 15 15 15 15 15 15 15 15 14 14 14 14 14 13 13 13 12 12 11 11 11 11 11 11 10 10 10 10 10 10 10 10 10 10 10 9 9 9 9 8 8 7 7 7 7 7 7 7 7 6 6 6 6 6 5 5 5 5 5 5 5 5 5 5 4 4
15 15 15 15 15 15 15 15 15 15 15 14 14 14 14 13 13 13 12 12 11 11 11 11 10 10 10 10 10 10 10 10 10 10 10 10 9 9 9 8 8 7 7 7 6 6 6 6 6 6 6 5 5 5 5 5 5 5 5 4 4 4 4 4 4 4 4 3 3
15 15 15 15 15 15 15 15 15 15 14 14 14 13 13 13 13 12 12 11 11 11 10 10 10 10 10 10 10 10 10 10 10 10 9 9 9 8 8 7 7 6 6 6 6 5 5 5 5 5 4 4 4 4 4 4 4 3 3 3 3 3 3 3 3 3 3 3 3
14 14 14 14 14 14 14 14 14 14 14 14 13 13 13 12 12 11 11 11 10 10 10 10 10 10 9 9 9 9 9 9 9 9 9 8 8 7 7 6 6 5 5 5 5 5 4 4 4 3 3 3 3 2 2 2 2 2 2 2 2 2 2 2 2 2 2 2 2
14 14 14 14 14 14 14 14 14 14 13 13 13 12 12 12 11 11 10 10 10 10 10 10 9 9 9 9 9 8 8 8 8 7 7 7 6 6 6 5 5 4 4 4 4 3 3 3 2 2 2 1 1 1 1 1 1 1 1 1 1 1 1 1 1 1 2 2 2
14 14 14 14 14 14 14 13 13 13 13 12 12 12 12 11 11 10 10 10 9 9 9 8 8 8 8 7 7 7 6 6 5 5 5 5 4 4 4 4 3 3 2 2 2 1 1 1 1 1 0 0 0 0 0 0 1 1 1 1 1 1 1 1 1 1 1 1 2
14 14 14 14 13 13 13 13 12 12 12 12 12 11 11 11 10 9 9 8 8 7 7 7 6 6 5 5 5 5 4 3 3 3 3 2 2 2 2 2 1 1 1 1 1 0 0 0 0 0 0 0 0 0 0 0 0 1 1 1 1 1 1 1 1 1 1 2 2
13 13 13 13 13 13 12 12 12 12 11 11 11 11 10 10 9 8 7 7 6 6 5 5 4 4 4 3 3 3 2 2 1 1 1 1 1 1 1 1 1 0 0 0 0 0 0 0 -0 -0 -0 -0 0 0 0 0 0 1 1 1 1 1 1 1 1 1 1 1 2
13 13 13 13 12 12 12 11 11 11 11 11 10 10 10 9 8 7 6 6 5 4 4 4 3 3 3 2 2 2 2 1 1 1 1 1 1 1 0 0 0 0 0 0 0 -0 -0 -0 -1 -1 -1 -0 -0 0 0 0 0 1 1 1 1 1 1 1 1 1 1 1 1
13 13 13 12 12 12 11 11 11 11 10 10 10 9 8 7 6 6 5 4 4 3 3 3 3 2 2 2 1 1 1 1 1 1 1 0 0 0 0 0 0 0 0 0 0 -0 -0 -1 -1 -1 -1 -1 -0 -0 0 0 0 1 1 1 1 1 1 1 1 1 1 1 1
12 12 12 12 12 11 11 11 11 10 10 9 9 8 7 7 6 5 4 4 3 3 2 2 2 2 1 1 1 1 1 0 0 0 0 0 0 0 0 -0 -0 -0 0 0 -0 -0 -0 -1 -1 -1 -1 -1 -1 -0 -0 0 0 1 1 1 1 1 1 1 1 1 1 1 2
12 12 12 12 11 11 11 10 10 10 9 8 8 7 7 6 6 5 4 3 3 2 2 1 1 1 1 0 0 0 0 0 0 0 0 0 0 0 0 0 0 -0 -0 -0 -0 -0 -0 -1 -1 -1 -1 -1 -1 -1 -1 -0 0 0 1 1 1 1 1 2 2 2 2 2 2
12 12 11 11 11 10 10 10 9 9 8 7 7 7 6 5 5 4 3 3 2 2 1 1 1 0 0 0 0 0 0 0 0 0 0 0 0 0 0 0 0 0 0 -0 -0 -0 -0 -1 -1 -1 -1 -1 -1 -1 -1 -1 -0 0 1 1 1 2 2 2 2 2 2 2 2
12 11 11 11 10 10 9 9 8 8 7 7 6 6 5 4 4 3 2 2 1 1 1 1 1 1 1 0 0 0 0 0 0 1 1 1 1 1 1 0 1 1 1 0 0 -0 -0 -1 -1 -1 -1 -1 -1 -1 -1 -0 -0 0 1 1 1 1 2 2 2 2 2 2 2
11 11 10 10 9 9 8 8 7 7 6 6 6 5 4 4 3 2 1 1 1 1 1 1 1 1 1 1 1 1 1 1 1 1 1 1 1 1 1 1 1 1 1 1 0 -0 -0 -1 -1 -1 -1 -1 -2 -2 -1 -1 -0 0 0 1 1 1 1 1 1 2 2 2 2
10 10 9 9 9 8 7 7 6 6 6 5 5 4 3 3 2 1 1 1 1 1 1 1 1 1 1 1 1 1 1 1 1 1 1 1 1 1 2 2 2 2 2 1 1 0 -0 -0 -1 -1 -1 -1 -2 -2 -2 -1 -1 -0 -0 0 0 1 1 1 1 1 1 2 2
9 9 9 9 8 8 7 6 6 5 5 4 4 3 2 2 1 1 1 1 1 1 1 1 1 1 1 1 1 1 1 1 1 1 2 2 2 2 2 2 2 2 2 1 1 0 -0 -1 -1 -1 -1 -2 -2 -2 -2 -2 -1 -1 -1 -0 -0 0 0 1 1 1 1 1 2
9 8 8 8 8 7 6 6 5 4 4 3 3 2 2 1 1 1 1 1 1 1 1 1 1 1 1 1 1 1 1 2 2 2 2 2 2 2 2 2 3 2 2 1 0 -0 -0 -1 -1 -1 -1 -2 -2 -2 -2 -2 -2 -1 -1 -0 -0 0 1 1 1 1 1 1 1
8 8 8 8 7 6 5 5 4 3 2 2 2 2 2 2 2 2 2 1 1 1 1 1 1 1 1 1 2 2 2 2 2 2 2 2 2 2 2 2 2 2 1 0 -0 -0 -1 -1 -1 -1 -2 -2 -2 -2 -2 -2 -1 -1 -0 -0 0 0 1 1 1 1 1 1 1
8 8 7 7 7 5 4 3 3 2 2 2 2 2 2 2 2 2 2 2 1 1 1 1 2 2 2 2 2 2 2 2 2 2 2 2 2 2 2 2 2 2 1 0 -0 -1 -1 -1 -1 -2 -2 -2 -2 -3 -2 -2 -1 -1 -0 0 0 1 1 1 1 1 1 0 0
7 7 6 6 5 4 3 3 2 2 2 2 2 2 2 2 2 2 2 2 2 2 2 2 2 2 3 3 3 3 3 3 2 2 2 1 1 1 1 1 2 1 1 0 -0 -1 -1 -1 -2 -2 -2 -3 -3 -3 -2 -1 -1 -1 -0 0 0 0 0 0 0 0 -0 -0 -1
6 5 5 4 3 3 2 2 2 2 2 2 2 2 2 2 2 2 2 2 3 3 3 3 3 3 3 3 3 3 3 2 2 2 1 1 1 1 1 1 1 1 0 0 -0 -1 -1 -1 -2 -2 -3 -3 -3 -3 -2 -1 -1 -1 -1 -0 -0 -0 -0 -0 -0 -1 -1 -1 -1
5 4 3 3 2 2 2 1 1 2 2 2 2 2 2 3 3 3 3 3 3 3 3 3 4 3 3 3 3 2 2 2 2 1 1 1 0 0 0 0 0 0 0 -0 -1 -1 -1 -2 -2 -3 -3 -4 -3 -3 -2 -2 -2 -1 -1 -1 -1 -1 -1 -1 -1 -2 -2 -2 -2
4 3 2 2 1 1 1 2 2 2 2 2 3 3 3 3 3 4 3 3 3 3 3 3 3 3 3 2 2 2 2 2 2 1 1 0 -0 -0 -0 -1 -1 -0 -0 -1 -1 -1 -2 -2 -3 -3 -3 -4 -4 -3 -3 -2 -2 -2 -2 -2 -2 -2 -2 -2 -2 -2 -2 -2 -2
2 2 1 1 1 2 2 2 2 2 3 3 3 3 3 4 4 4 3 3 3 3 3 3 3 2 2 2 2 2 1 1 1 1 1 0 -0 -1 -1 -1 -1 -1 -1 -1 -1 -2 -2 -2 -3 -3 -4 -4 -4 -4 -3 -3 -3 -2 -2 -2 -2 -3 -3 -3 -3 -3 -3 -3 -3
2 2 2 2 2 2 3 3 3 3 3 3 3 3 3 3 3 3 3 3 3 3 3 2 2 2 2 2 2 1 1 1 1 1 1 0 0 -0 -1 -1 -1 -1 -1 -1 -1 -2 -2 -3 -3 -4 -4 -4 -4 -4 -4 -4 -3 -3 -3 -3 -3 -3 -3 -3 -3 -3 -3 -3 -3
Height
801 801 801 800 799 798 798 797 796 795 795 794 794 794 793 793 793 793 793 793 793 793 793 792 792 792 792 792 791 791 791 791 790 790 790 789 789 788 788 787 787 787 787 787 787 787 787 787 787 787 787 787 787 787 786 786 787 787 786 786 786 786 786 785 785 784 784 784 784
800 799 799 798 797 797 796 795 795 794 794 793 793 793 792 792 792 792 791 791 791 791 791 791 791 790 790 790 790 790 789 789 789 788 788 787 787 787 786 786 786 786 786 786 786 786 786 786 786 786 786 786 786 786 786 786 786 786 786 785 785 785 785 785 784 784 783 783 783
798 798 797 797 796 795 795 794 793 793 792 792 792 791 791 791 791 791 790 790 790 790 790 789 789 789 788 788 788 788 788 787 787 787 786 786 786 785 785 785 784 784 784 784 785 785 785 785 785 785 785 785 785 785 785 784 784 784 784 784 784 784 784 783 783 783 783 782 782
797 796 796 795 795 794 793 792 792 791 791 791 790 790 790 789 789 789 789 789 789 788 788 788 787 787 787 787 786 786 786 786 786 785 785 784 784 783 783 783 782 782 782 783 783 783 784 784 784 784 784 783 783 783 783 783 782 782 782 782 782 782 782 781 781 781 781 781 781
796 795 795 794 793 792 792 791 791 790 789 789 789 789 788 788 788 788 788 787 787 787 787 786 786 786 786 785 785 785 785 785 784 784 783 782 782 781 781 781 781 781 781 781 781 782 782 782 782 782 782 782 782 781 781 781 781 781 781 781 781 780 780 780 780 781 781 781 781
794 793 793 793 792 791 791 790 789 789 788 788 787 787 787 787 786 786 786 786 786 785 785 785 785 784 784 784 784 784 783 783 783 782 782 781 781 781 780 780 780 779 779 779 780 780 780 781 781 781 781 781 780 780 780 780 780 779 779 779 779 779 779 779 779 780 780 780 780
792 792 791 791 791 790 789 789 788 788 787 787 786 786 785 785 785 785 785 784 784 784 783 783 783 783 783 783 782 782 782 782 781 781 781 780 780 780 779 779 778 778 778 778 778 778 779 779 779 779 779 779 779 778 778 778 778 778 778 778 777 777 778 778 778 778 778 778 778
791 790 790 789 789 788 788 787 787 787 786 786 785 784 784 783 783 783 783 783 783 782 782 782 781 781 781 781 781 781 781 780 780 780 779 779 779 778 778 778 777 776 776 776 776 777 777 777 777 777 777 777 777 777 777 777 777 776 776 776 776 776 776 777 777 777 777 777 777
790 789 789 788 788 787 786 786 785 785 785 784 784 783 782 782 782 782 782 781 781 781 781 780 780 780 780 780 779 779 779 779 778 778 778 778 777 777 776 776 776 775 775 775 775 776 776 776 776 776 776 776 776 776 776 776 776 776 776 775 775 775 775 776 776 776 776 776 776
789 788 787 787 786 786 785 784 783 783 783 782 782 782 781 781 781 780 780 780 780 780 779 779 779 779 778 778 778 778 777 777 777 776 776 776 775 775 775 774 774 774 774 774 774 774 774 774 775 775 775 775 775 775 775 775 775 775 775 775 775 774 774 774 775 775 775 775 775
788 787 786 786 785 784 783 782 781 781 781 781 780 780 780 780 779 779 779 778 778 778 778 778 777 777 777 777 776 776 776 776 775 775 775 774 774 773 773 773 773 773 773 773 773 773 773 773 773 773 774 774 774 774 774 774 774 774 774 774 774 774 773 773 773 774 774 774 774
787 786 786 785 783 782 781 781 780 779 779 778 778 778 778 778 778 777 777 776 776 776 776 776 776 776 776 776 775 775 775 774 774 774 774 773 773 772 772 771 771 771 771 771 771 771 771 771 772 772 772 773 773 773 773 773 773 773 774 774 774 774 773 773 773 773 773 773 774
786 785 784 783 782 781 780 779 778 777 777 776 776 776 776 776 776 776 775 775 775 775 775 775 775 775 775 775 774 774 773 773 773 773 772 772 772 771 771 770 770 770 770 770 770 770 770 770 770 771 771 771 772 772 772 772 772 772 772 773 773 773 773 772 772 772 773 773 774
785 784 783 782 781 780 779 777 776 776 775 775 775 775 775 774 774 774 774 774 774 774 774 774 774 774 774 774 773 773 772 772 771 771 771 771 771 770 770 769 769 769 769 769 769 770 770 769 769 770 770 771 771 771 771 771 771 771 771 771 772 772 772 772 772 772 772 773 773
784 783 782 781 780 778 777 776 775 774 773 773 773 773 773 773 773 773 773 773 773 773 774 774 773 773 773 773 772 772 771 771 771 770 770 769 769 769 769 769 768 768 768 769 769 769 769 769 769 769 769 770 770 771 771 771 770 770 770 771 771 771 771 771 771 771 772 772 773
783 782 781 779 778 777 776 775 774 773 772 772 772 772 772 772 772 772 772 772 772 773 773 773 773 772 772 772 771 771 771 770 769 769 768 768 768 768 768 768 768 768 768 768 769 769 769 768 768 768 768 769 769 770 770 770 770 770 770 770 770 771 771 771 771 771 771 771 772
782 781 779 778 776 775 774 773 772 771 771 771 771 771 771 771 771 771 771 771 771 772 772 772 772 772 771 771 771 770 770 769 768 768 767 767 767 768 768 768 768 768 768 768 768 769 768 768 768 768 768 768 769 769 770 770 770 770 770 770 770 770 770 770 770 771 771 771 771
781 780 778 777 776 774 773 772 771 770 770 771 771 771 771 771 771 771 771 771 771 771 771 771 771 771 771 770 769 769 768 767 767 766 766 767 767 767 768 768 768 768 768 769 769 769 768 768 768 768 768 768 768 769 769 770 770 770 770 770 770 770 770 770 770 770 770 770 771
780 779 777 776 775 773 772 771 770 770 770 771 771 771 771 771 771 771 771 771 771 771 770 770 770 770 770 769 768 768 767 766 766 766 766 766 767 767 767 767 767 768 769 769 769 769 769 769 768 768 768 768 768 769 769 770 770 770 770 770 770 770 770 770 770 770 770 770 770
779 778 776 775 774 773 772 771 771 770 770 771 771 771 771 771 771 771 771 771 770 770 770 769 769 769 769 769 768 768 767 767 766 766 766 766 766 767 767 767 767 768 769 769 769 770 769 769 769 768 768 768 768 769 769 769 770 770 770 770 770 769 769 769 769 769 769 769 769
779 777 776 775 774 773 773 772 771 771 771 771 771 771 771 772 771 771 771 771 770 770 769 769 769 770 769 769 769 769 768 768 767 767 767 767 767 767 767 767 768 768 768 769 769 769 769 769 769 769 768 768 769 769 769 770 770 770 770 769 769 769 769 769 769 768 768 768 768
778 777 776 775 774 773 773 772 772 771 771 771 771 771 771 772 772 772 771 771 770 770 770 770 770 770 770 770 770 770 770 770 769 768 768 767 767 767 767 767 768 768 768 768 769 769 769 769 769 769 769 769 770 770 770 770 770 769 769 769 768 768 768 768 767 767 767 766 766
778 777 776 775 774 773 773 773 772 772 771 771 771 771 771 771 772 772 771 771 770 770 770 771 771 771 770 770 770 770 770 770 770 769 769 768 768 768 768 768 768 769 769 769 769 769 769 770 770 770 770 770 770 770 770 770 769 769 768 768 767 767 766 766 766 766 766 765 765
778 776 775 774 774 773 773 773 772 772 771 771 771 771 771 771 771 771 771 771 771 771 771 771 771 771 770 770 770 770 770 770 770 770 770 769 769 769 769 769 769 769 769 769 769 770 770 770 770 770 770 770 770 770 770 769 769 768 767 767 766 766 765 765 765 765 764 764 763
777 776 774 774 773 773 773 772 772 771 771 770 770 770 771 771 771 771 771 771 771 771 771 772 772 771 771 771 771 770 770 770 770 770 770 770 770 770 770 770 770 770 770 770 770 770 770 770 770 770 770 770 770 769 769 768 768 767 766 766 765 764 764 763 763 763 762 762 762
776 775 773 773 772 772 772 771 771 770 770 770 770 771 771 771 771 771 771 771 771 772 772 772 772 772 772 771 771 771 771 771 771 771 771 771 771 771 771 770 770 770 770 770 769 769 769 770 769 769 769 769 769 769 768 768 767 766 766 765 764 763 762 762 761 761 761 760 760
775 774 773 772 771 771 771 771 771 770 770 770 771 771 771 771 771 771 771 772 772 772 772 772 772 772 772 772 772 772 771 771 771 771 771 771 771 771 771 770 770 769 769 769 769 769 769 769 769 769 769 769 768 768 768 767 766 766 765 764 763 762 761 760 760 759 758 758 757
774 773 772 771 771 771 771 771 771 771 771 771 771 771 771 771 771 771 772 772 772 772 773 773 773 773 773 773 772 772 772 771 771 771 771 771 771 770 770 770 769 769 768 768 768 768 768 768 768 768 768 768 768 767 767 766 766 765 764 763 762 761 760 759 758 757 756 756 756
774 773 772 772 771 771 772 772 772 772 771 771 771 771 771 772 772 772 772 772 773 773 773 773 773 773 773 773 772 772 772 771 771 771 771 770 770 770 769 769 768 767 767 766 767 767 767 767 768 767 767 767 767 767 766 766 765 764 763 762 761 760 759 758 757 756 756 755 755
774 773 773 773 773 773 773 774 773 773 772 772 772 772 772 772 772 772 772 773 773 773 773 773 773 773 773 772 772 771 771 771 771 770 770 770 769 769 768 768 767 766 766 765 766 766 766 767 767 767 767 766 766 766 766 766 765 764 763 761 760 759 758 757 756 756 755 754 754
775 775 775 774 774 774 774 775 774 774 773 773 772 772 772 772 772 773 773 773 773 773 773 773 773 772 772 772 771 771 771 770 770 770 769 769 769 768 768 767 766 766 765 764 765 766 766 766 766 766 766 766 766 766 765 765 764 763 762 761 760 758 757 756 756 755 754 753 752
776 776 776 775 774 774 775 775 775 775 774 774 773 773 773 773 773 773 773 773 773 773 773 772 772 772 771 771 771 771 770 770 770 769 769 768 768 767 767 766 766 765 764 763 764 765 765 765 765 765 765 765 765 765 764 764 763 762 761 760 758 757 756 755 754 753 752 752 751
776 776 776 775 774 774 775 775 776 775 775 775 774 774 774 773 773 773 773 773 773 773 772 772 771 771 771 771 770 770 770 769 769 768 768 767 767 766 766 766 765 764 763 763 763 764 764 764 764 765 765 765 764 764 763 763 762 761 759 758 757 756 755 754 753 752 751 751 750
776 775 775 775 775 775 775 776 776 776 776 775 775 775 774 774 774 773 773 773 772 772 772 771 771 771 770 770 770 769 769 768 768 768 767 767 767 766 766 766 766 763 762 763 763 763 764 764 764 764 764 764 764 763 762 761 761 759 758 756 755 754 753 752 751 751 750 750 749
775 775 775 775 776 776 776 776 776 776 776 776 776 775 775 774 774 773 773 772 772 771 771 771 771 770 770 769 769 768 768 767 767 767 767 767 766 766 766 765 766 764 762 762 763 763 763 763 764 764 764 763 763 762 761 760 759 757 756 755 753 752 751 751 750 750 749 749 749
776 776 776 776 777 777 777 777 777 777 776 776 776 776 775 774 774 773 772 772 771 771 771 770 770 769 769 768 768 767 767 767 767 767 766 766 766 766 766 765 765 764 762 762 762 763 763 763 763 763 763 762 762 761 760 759 757 756 755 753 752 751 751 750 749 749 748 748 748
778 778 778 778 778 778 778 778 777 777 777 776 776 775 775 774 773 772 772 771 771 771 770 769 769 768 768 767 767 767 767 767 766 766 766 766 766 766 765 765 765 765 764 762 762 762 762 762 762 762 762 761 761 760 759 757 756 755 753 752 751 751 750 749 749 748 748 747 747
780 780 780 779 779 779 778 778 778 777 777 776 776 775 774 773 772 772 771 771 771 770 769 769 768 768 768 768 768 767 767 767 766 766 766 765 765 765 765 765 764 764 764 763 762 762 762 762 762 761 761 761 760 759 758 757 755 754 753 752 751 750 750 749 748 748 747 747 746
781 781 780 780 779 779 779 778 778 777 777 776 775 775 774 773 772 771 771 771 770 770 769 769 768 768 768 768 768 767 767 766 766 766 765 765 765 765 765 764 764 764 763 763 762 761 761 761 761 761 760 760 760 759 757 756 755 754 752 751 751 750 749 749 748 747 746 746 746
782 781 781 780 780 780 779 778 778 777 776 776 775 774 773 772 771 771 771 771 770 770 770 769 769 768 768 768 767 767 766 766 766 765 765 764 764 764 764 764 763 763 763 762 761 761 761 760 760 760 760 759 759 758 757 756 755 753 752 751 751 750 749 748 747 746 746 745 745
782 782 781 781 780 780 779 778 778 777 776 776 775 774 773 772 772 771 771 771 770 770 770 769 769 768 768 767 767 766 766 765 765 765 764 764 763 763 763 763 762 762 762 762 761 761 760 759 759 759 759 759 758 758 757 756 755 753 752 751 750 749 748 747 747 746 746 745 744
Wind_Speed
17 17 17 17 16 16 17 17 17 16 15 15 16 16 16 16 16 15 15 14 14 14 14 14 14 14 14 14 14 14 15 15 16 16 17 17 17 17 17 17 17 16 15 14 13 13 12 12 12 12 12 11 11 11 11 10 10 11 11 10 10 10 10 9 9 9 9 9 10
19 19 19 18 16 15 15 16 16 15 15 14 15 15 15 15 16 16 15 15 15 15 15 15 15 15 15 15 14 14 15 15 16 16 17 17 18 17 17 17 16 15 15 14 13 13 12 12 12 12 12 12 12 12 12 12 12 12 12 12 11 11 11 11 10 10 10 10 11
19 19 19 19 18 17 16 15 15 14 14 15 15 15 15 15 15 15 15 15 15 15 15 16 16 15 15 15 14 14 15 16 16 17 17 18 17 17 17 16 16 15 15 14 13 13 13 13 13 13 13 12 13 13 13 13 13 13 13 13 13 13 13 12 11 10 10 10 10
18 18 18 18 18 18 17 17 16 16 16 16 16 16 15 15 15 15 15 15 15 16 16 15 15 15 15 15 15 15 16 17 17 18 18 18 18 18 18 17 16 15 14 14 13 13 13 14 14 14 14 14 14 15 15 14 14 14 14 14 15 14 14 12 10 9 9 9 9
19 17 17 17 17 18 18 18 18 18 17 17 17 17 16 16 16 16 15 15 15 15 15 15 15 15 15 16 16 17 17 18 18 18 18 18 19 18 18 17 17 16 15 14 14 14 14 15 15 15 15 15 16 16 16 16 15 15 15 15 14 14 13 11 9 8 8 8 8
19 18 17 16 17 17 17 18 18 19 18 18 18 18 18 18 18 17 17 17 17 16 16 16 16 16 16 16 17 17 17 18 18 18 18 19 18 18 18 17 17 17 16 16 15 15 15 15 15 16 16 16 17 17 17 17 16 15 15 14 13 12 11 10 10 9 9 9 8
20 20 19 19 18 18 18 18 19 19 19 18 18 19 19 19 19 19 19 19 18 18 17 17 17 17 16 16 16 17 17 17 18 18 18 18 18 18 18 18 18 18 17 16 16 15 15 15 15 16 16 16 16 17 17 16 16 15 15 14 13 11 10 10 10 10 10 10 10
21 21 21 21 21 21 20 20 20 20 20 19 19 19 19 20 20 20 19 19 19 19 18 18 18 18 18 18 18 18 18 18 19 19 18 18 18 18 18 19 19 19 18 17 16 16 16 16 16 16 15 15 15 15 15 15 15 15 15 15 14 13 11 11 11 11 11 11 11
22 22 22 22 22 22 22 22 22 22 22 22 21 21 20 20 19 19 19 19 19 19 19 19 18 18 18 19 19 19 19 19 19 19 19 18 18 19 19 19 19 19 18 17 17 17 17 16 16 16 15 15 15 15 14 14 14 14 14 15 15 14 13 12 12 12 12 12 12
23 23 23 23 24 24 24 24 23 23 23 23 23 22 21 20 20 19 19 19 19 19 19 18 18 18 18 18 19 19 19 19 19 19 19 19 19 19 19 19 19 18 18 17 17 17 17 16 16 15 15 15 15 15 15 14 13 13 14 14 14 14 13 13 12 12 12 12 12
24 25 25 25 26 26 26 25 24 24 23 23 23 22 21 21 20 19 19 19 19 19 19 19 19 19 19 19 19 19 19 19 19 20 20 20 20 19 19 19 18 18 19 19 18 17 17 16 16 16 16 15 15 15 14 13 13 13 13 13 13 13 13 13 12 12 12 12 12
26 26 26 27 27 27 26 26 25 25 24 24 23 22 21 20 20 20 20 20 20 20 20 20 19 19 19 19 19 19 20 20 20 21 21 21 21 20 20 19 19 19 20 20 19 18 17 16 16 16 16 15 15 15 14 13 12 12 12 13 14 14 14 13 13 12 12 12 12
27 27 27 27 27 26 26 26 26 25 24 24 23 22 21 21 20 20 20 20 20 20 20 20 19 19 19 19 19 20 21 21 21 21 21 21 21 21 21 21 20 20 20 19 18 18 17 17 16 16 16 15 15 15 14 13 12 12 12 12 13 14 14 13 13 12 12 13 13
27 27 26 26 26 26 25 26 25 25 24 24 23 22 21 21 20 20 19 19 19 19 19 19 19 19 19 19 20 21 21 22 22 22 21 22 22 22 22 21 21 20 19 19 18 17 17 17 16 16 15 15 15 15 14 12 11 11 11 11 12 12 13 13 12 12 12 12 13
26 26 25 25 25 25 25 25 25 24 24 23 22 21 21 20 19 19 18 17 17 17 17 17 18 19 19 20 21 21 21 21 22 22 22 22 22 22 21 21 20 19 18 17 16 16 15 15 14 13 13 13 13 13 12 11 10 9 9 9 10 11 11 11 11 11 11 12 12
25 25 25 25 25 24 24 24 24 24 23 22 21 20 19 19 18 17 16 16 15 15 16 17 18 19 20 21 21 21 21 21 21 22 22 22 21 21 20 18 17 16 15 14 13 13 12 11 10 10 10 10 10 10 10 9 8 7 7 8 9 10 10 10 10 10 11 11 11
24 24 24 24 24 24 24 24 23 23 22 21 20 20 19 18 17 16 15 15 15 16 17 18 19 20 21 21 22 22 22 22 21 21 20 20 19 18 17 15 14 13 12 11 10 9 8 7 6 6 6 7 7 7 7 7 7 7 7 7 8 8 9 9 9 10 10 10 10
24 24 24 24 23 23 23 23 23 22 21 21 20 19 18 17 16 15 15 16 17 18 19 20 20 21 21 22 22 22 21 21 20 19 17 16 15 14 13 11 10 9 9 8 7 7 6 5 4 4 4 4 4 5 5 5 6 6 6 7 7 8 8 8 9 9 10 10 11
24 24 23 23 23 22 22 21 21 20 19 19 19 19 18 17 16 17 18 19 19 20 20 20 20 20 21 21 21 20 19 17 16 14 13 12 11 10 9 7 7 6 6 6 6 5 4 4 3 3 2 3 3 4 4 5 5 6 6 6 7 7 8 9 9 10 11 12 12
24 24 23 23 22 22 21 20 19 18 18 17 18 18 18 18 19 20 21 21 21 19 18 17 18 18 18 18 17 16 14 11 10 9 8 7 6 6 6 5 5 4 4 4 4 4 4 4 5 5 4 4 4 5 5 6 6 7 7 8 8 9 10 11 11 12 13 14 14
24 24 24 23 23 22 20 19 18 17 17 16 17 18 19 21 21 22 21 19 16 14 12 12 13 14 14 13 12 11 9 7 6 6 5 5 5 6 6 5 5 5 5 5 5 5 6 6 7 7 7 6 7 7 8 9 9 10 10 11 12 12 13 13 14 14 15 15 16
25 24 24 24 23 21 20 18 18 17 17 18 19 20 21 21 21 18 15 12 10 10 10 10 10 10 9 9 8 7 7 8 9 9 8 8 7 7 7 6 6 6 6 5 5 6 6 7 8 9 10 10 10 11 11 11 11 12 13 13 14 14 15 15 15 16 16 17 17
25 25 24 24 23 21 20 18 18 19 19 20 20 20 20 18 14 11 9 9 9 9 8 7 6 6 7 7 7 7 7 8 9 10 9 8 8 9 9 9 9 9 8 7 8 8 9 10 11 11 11 11 12 12 12 13 13 14 14 14 14 15 15 15 16 16 17 17 17
26 25 24 23 22 21 20 19 19 19 19 19 18 17 15 11 7 6 6 7 6 6 5 4 4 4 5 5 6 7 7 7 8 9 10 10 11 11 11 11 10 9 8 7 8 9 10 11 11 11 11 11 11 12 12 12 13 14 14 14 15 15 15 15 15 16 16 17 17
27 26 25 23 22 21 21 20 20 19 17 16 14 11 8 5 5 5 5 4 4 5 5 5 5 5 5 5 6 6 7 7 8 9 10 10 10 10 10 9 9 8 8 8 9 10 11 11 11 11 10 10 11 11 12 12 13 14 14 14 15 15 15 15 16 16 16 17 17
27 26 25 23 22 21 22 22 21 19 16 12 8 6 5 4 4 4 5 5 6 6 6 6 6 6 6 6 7 8 8 8 8 8 8 8 8 8 8 8 8 8 9 9 11 11 12 11 11 11 11 10 10 11 11 12 12 13 14 14 15 15 15 16 16 16 17 17 17
27 26 25 23 21 21 21 20 18 14 10 7 5 4 4 3 3 5 7 7 7 7 7 7 6 6 7 7 8 8 8 7 7 7 7 7 8 8 8 9 9 9 10 11 11 11 11 11 11 11 11 11 10 11 11 12 13 13 14 15 15 16 16 16 17 17 17 17 17
27 25 24 22 20 20 19 16 12 9 7 5 4 3 3 5 6 7 7 7 7 7 7 7 7 7 7 6 6 6 6 6 6 6 6 6 7 7 8 9 9 10 10 11 11 11 10 10 10 11 11 11 11 11 11 12 13 14 15 15 15 16 16 16 17 17 17 17 17
27 25 22 20 19 17 15 13 10 8 6 4 4 4 6 7 8 8 7 7 7 6 6 6 5 5 5 4 4 5 5 5 5 5 5 6 7 7 8 9 10 11 11 11 10 10 9 9 10 11 11 11 11 11 11 12 13 14 15 15 15 15 16 16 17 17 17 17 17
25 23 21 19 16 14 13 11 8 6 4 4 5 6 6 6 8 8 7 6 6 6 5 4 4 3 3 3 3 3 4 4 4 5 6 6 7 8 9 10 11 11 9 8 8 7 8 9 10 11 11 11 11 11 11 13 14 15 15 16 16 16 17 17 18 18 18 18 18
22 21 20 18 14 11 9 8 6 5 4 4 4 5 6 6 7 7 6 5 4 3 3 2 2 2 3 3 4 4 4 5 5 6 6 7 8 8 9 10 11 10 8 6 6 6 7 9 10 11 11 12 12 12 12 14 15 16 17 17 18 18 18 18 19 18 18 18 18
19 18 18 17 13 9 6 5 5 4 4 4 4 5 6 6 6 5 4 3 2 2 2 2 3 4 4 5 5 5 6 6 6 6 7 8 9 9 10 11 12 9 7 6 6 7 8 9 10 11 12 13 15 15 15 15 17 18 18 19 19 19 19 19 19 19 19 18 18
16 16 16 15 11 8 5 4 4 4 4 5 5 5 5 4 3 2 2 1 1 2 3 3 4 5 6 6 6 6 6 6 6 7 8 9 9 10 11 11 12 8 5 6 6 6 7 9 10 12 14 15 17 17 17 17 17 18 18 19 19 19 19 19 19 19 18 18 18
14 13 14 13 9 6 5 4 4 4 5 5 5 4 3 2 2 1 1 2 3 3 4 5 6 6 7 7 7 6 6 6 7 7 8 9 9 10 11 12 11 7 4 4 5 6 8 10 12 13 15 17 18 18 17 17 18 18 18 19 19 19 19 19 19 18 18 18 17
13 12 12 11 8 5 4 4 3 3 4 4 3 3 2 2 3 3 3 3 4 5 5 6 7 7 7 7 6 6 6 7 8 8 8 9 9 10 11 12 10 8 7 7 8 9 10 12 14 15 17 18 18 17 16 17 17 18 18 18 18 18 18 18 18 18 17 16 16
13 11 10 9 6 5 4 3 3 3 3 2 3 3 4 4 4 4 5 5 5 6 6 7 7 7 7 6 6 7 8 9 10 9 9 9 9 10 10 11 10 10 10 10 11 12 13 14 15 17 18 17 16 15 15 16 16 17 17 17 17 17 17 17 17 16 16 15 15
13 10 8 7 5 4 4 3 3 3 3 3 4 5 5 6 6 6 5 5 6 6 7 7 7 7 7 7 8 9 10 11 11 10 9 8 8 9 10 10 11 10 11 12 12 13 14 16 17 18 17 16 14 14 14 15 15 15 16 16 16 16 16 16 16 15 15 15 15
11 9 7 5 4 4 3 3 3 3 4 5 6 6 7 7 7 6 6 6 6 7 8 8 8 8 8 9 10 11 11 12 11 10 8 8 8 8 9 10 11 11 11 12 13 14 15 16 17 17 17 15 13 13 14 14 14 15 15 15 15 15 15 15 15 15 15 15 15
10 8 6 4 3 3 3 3 4 5 6 7 7 8 8 8 7 6 6 6 7 8 9 9 9 10 10 10 10 11 11 11 11 9 8 7 7 8 8 10 11 11 11 12 13 14 14 15 16 16 16 14 13 12 13 13 14 14 15 15 15 15 15 15 15 15 15 15 15
8 6 5 4 3 3 4 5 6 6 7 8 9 8 8 8 7 7 7 7 8 9 9 9 10 10 10 10 11 11 11 10 11 10 9 8 8 9 9 9 10 11 11 11 11 12 12 13 14 15 14 12 11 12 12 13 14 14 14 14 14 14 14 14 14 14 14 15 15
6 5 4 4 4 5 6 7 7 8 9 9 9 8 8 8 8 8 8 9 9 9 10 10 10 11 11 11 11 11 10 10 11 11 10 9 9 10 10 10 11 11 11 10 10 10 11 12 13 13 12 10 10 11 12 12 13 14 14 15 14 14 14 15 15 15 15 16 16
Wind_Direction
288 289 289 286 282 279 278 277 274 270 266 264 264 264 263 262 261 261 261 263 265 268 271 274 275 276 277 277 278 280 281 282 282 280 278 275 274 273 273 272 270 267 263 262 262 263 264 266 268 269 270 269 268 265 260 253 254 257 260 256 249 243 236 224 216 214 217 223 230
287 287 288 286 280 274 270 270 269 265 260 258 258 259 259 259 260 260 262 263 265 268 271 274 275 275 274 274 275 278 280 281 281 279 277 275 272 271 270 268 266 263 261 261 262 264 266 267 267 268 267 266 264 262 258 252 252 255 258 255 251 247 242 237 233 230 231 236 241
286 284 284 284 280 274 268 266 265 263 260 259 258 258 257 258 259 260 262 264 267 269 272 273 274 273 272 272 274 276 279 280 281 280 277 274 271 269 267 264 261 258 256 257 259 262 264 266 266 266 265 264 263 263 261 256 251 251 252 250 249 247 245 244 239 235 235 238 239
285 282 280 280 278 274 270 266 264 263 263 262 263 262 260 260 260 261 263 265 268 269 270 271 272 272 271 271 273 276 279 280 280 278 275 272 269 266 264 261 258 255 253 253 255 258 260 262 263 263 263 263 263 264 263 259 252 248 247 247 246 245 245 245 239 232 228 229 228
286 282 278 276 276 274 271 268 265 264 265 265 265 265 264 263 263 263 264 266 267 268 268 270 272 273 272 272 273 276 279 281 279 276 272 268 266 264 261 258 256 254 252 251 253 256 258 259 259 260 261 263 264 264 263 260 254 248 245 245 244 243 244 246 243 236 228 222 222
289 285 280 276 273 272 270 268 266 265 264 264 263 263 264 264 264 265 266 267 268 269 270 272 274 275 274 273 274 276 278 280 279 276 273 269 267 264 261 257 254 252 250 251 253 256 257 258 259 260 261 262 263 263 262 260 256 251 248 247 245 245 247 250 249 245 238 231 229
292 289 286 282 279 275 272 270 268 266 265 263 261 261 262 263 264 266 268 270 271 272 273 274 275 276 276 275 274 275 277 280 281 279 276 272 269 266 263 259 255 251 249 250 252 256 259 261 261 262 262 263 264 264 264 264 262 258 255 254 252 252 252 252 251 248 246 243 238
294 292 290 288 287 284 280 276 272 268 266 264 263 262 263 264 265 266 269 271 272 273 274 275 276 277 278 278 278 278 279 281 282 281 278 273 269 266 263 260 255 252 250 251 255 259 262 263 263 264 265 266 267 269 270 271 270 268 265 263 262 260 255 252 251 251 250 248 244
296 294 292 290 288 286 284 281 276 271 268 266 266 266 265 265 266 267 268 270 272 273 275 276 277 278 279 280 280 280 281 281 281 279 276 271 268 265 262 260 257 255 253 254 257 261 264 264 263 263 264 267 269 272 274 275 273 270 266 265 265 262 257 252 250 250 251 252 250
297 296 294 292 289 286 284 281 277 273 269 268 267 268 267 267 267 267 268 269 270 271 272 273 275 277 278 279 280 281 281 280 278 276 274 271 267 264 263 262 261 260 259 259 261 263 264 264 262 261 261 263 267 270 272 273 270 267 263 260 260 260 258 255 253 253 254 255 255
298 297 296 293 291 287 284 281 278 274 270 268 268 268 268 268 268 268 268 268 269 269 270 271 273 276 279 281 283 283 282 280 277 275 274 272 269 267 265 264 263 263 264 264 265 265 265 263 261 260 260 261 265 268 270 269 267 264 262 261 260 260 260 259 258 259 260 261 261
298 297 296 294 291 288 285 282 279 276 273 270 269 268 268 268 269 270 270 270 271 272 273 275 277 279 283 286 288 288 286 283 280 278 277 276 275 273 270 268 267 266 266 266 267 267 266 264 262 261 261 264 267 270 270 268 265 263 262 263 265 265 265 265 265 266 267 268 268
298 297 296 294 291 288 285 281 279 276 274 271 270 269 269 270 271 272 273 274 276 278 280 281 282 283 285 288 291 291 290 287 284 281 280 279 278 277 276 274 272 270 268 268 268 268 267 265 263 263 265 268 272 273 273 270 265 262 262 264 267 269 270 271 271 272 273 274 274
299 297 296 294 292 289 286 282 279 277 275 272 270 269 270 272 273 275 276 278 281 284 287 287 286 286 288 291 293 293 293 290 287 284 281 280 279 279 278 277 275 273 272 272 272 272 270 267 266 266 269 273 276 277 275 271 266 264 264 266 269 272 273 275 276 277 277 277 276
300 298 296 295 293 290 286 283 280 278 275 272 270 269 270 273 275 277 279 282 286 289 291 291 290 290 291 293 294 295 294 292 289 285 282 280 279 279 278 277 277 276 276 277 278 277 273 269 268 268 271 275 278 279 277 272 269 267 267 268 270 272 273 275 276 277 276 276 276
301 299 298 296 294 291 288 285 282 278 276 273 271 271 272 275 278 280 283 286 289 291 292 292 293 293 293 293 294 294 294 292 289 286 283 281 280 280 279 280 281 282 284 285 285 282 278 273 272 273 275 279 282 281 278 274 273 272 270 269 271 272 274 274 275 274 274 274 275
302 301 300 298 296 294 291 287 284 280 277 275 274 275 277 279 282 284 287 290 292 293 293 293 293 293 293 292 292 291 291 290 288 285 283 282 282 283 284 287 291 294 295 295 292 288 284 281 280 281 283 285 287 287 284 279 278 277 275 274 275 275 275 275 274 273 274 275 276
303 302 301 300 299 297 294 292 288 285 281 279 279 280 282 285 288 291 294 295 295 295 294 294 292 291 290 289 289 289 288 288 286 284 282 282 284 288 292 298 305 308 306 302 296 294 295 294 290 289 292 296 300 302 298 291 287 283 280 280 279 278 278 278 276 275 274 275 274
305 304 304 303 302 301 300 299 296 292 288 285 284 285 288 291 295 298 299 299 298 296 295 293 291 289 289 288 288 289 288 287 286 285 284 286 289 295 304 315 323 322 315 308 304 307 316 325 328 332 335 335 333 327 320 313 306 294 288 289 288 285 283 282 280 277 275 274 273
307 307 306 306 305 305 305 305 304 302 299 295 292 293 295 298 300 301 302 301 300 298 296 294 294 294 294 294 294 296 296 295 295 295 298 305 313 324 335 345 351 350 344 341 342 349 359 8 14 15 11 2 351 340 331 323 317 308 298 292 290 286 283 280 277 275 273 271 270
309 309 308 308 307 307 307 307 309 310 310 306 301 299 300 301 302 303 304 305 307 307 308 308 308 309 310 311 312 316 323 331 340 342 347 2 8 12 13 14 19 22 23 23 21 17 14 11 8 3 355 343 333 324 316 309 304 298 291 284 281 277 275 272 270 269 267 265 265
311 311 310 309 307 307 306 307 309 311 310 307 303 301 300 301 303 306 313 326 338 341 335 329 327 332 338 341 346 354 7 16 22 23 24 26 24 18 13 9 10 8 4 359 354 348 342 338 334 330 326 321 315 309 302 296 291 285 281 277 273 271 270 269 268 267 266 266 265
311 311 309 308 307 307 307 308 309 307 305 303 301 299 300 303 308 320 337 350 356 358 350 332 345 8 21 24 30 33 31 26 22 19 15 7 1 355 350 346 344 341 336 328 322 320 321 320 319 317 315 311 306 300 294 290 286 282 279 277 274 273 272 272 271 270 269 268 267
310 310 309 308 307 306 307 307 307 305 303 300 299 299 302 310 330 352 357 353 358 9 16 13 29 35 32 29 33 33 28 18 11 4 357 350 348 348 348 347 345 341 336 327 320 319 321 320 318 314 309 304 298 292 288 285 282 280 278 277 276 275 274 274 272 271 270 269 268
309 308 308 307 306 305 305 305 306 305 304 302 303 307 316 339 6 16 18 23 33 38 41 44 39 32 26 21 23 22 16 7 3 359 357 355 353 351 349 347 341 333 324 314 309 312 315 316 313 306 299 294 289 287 284 281 280 278 277 276 275 274 274 273 272 271 270 269 268
309 308 308 307 306 306 305 305 305 305 306 310 322 337 348 358 19 46 61 62 58 53 48 42 32 27 25 22 21 17 11 6 4 1 359 354 348 342 336 329 321 313 304 297 295 300 305 307 304 298 293 289 287 287 286 284 282 280 279 277 275 274 273 273 273 272 270 268 267
310 310 309 309 309 308 308 308 311 316 324 335 344 350 359 24 60 75 76 70 62 54 48 41 31 24 21 19 17 15 12 8 4 358 350 342 334 326 320 314 306 299 292 287 287 292 296 297 297 296 296 294 291 289 289 288 287 285 282 279 277 275 274 273 273 274 273 271 271
313 313 313 314 313 313 313 315 322 332 344 354 359 13 44 73 81 80 75 68 61 54 46 39 29 19 15 15 13 10 6 0 353 343 334 325 315 309 306 302 297 290 282 277 278 281 285 289 294 299 301 299 295 291 289 288 287 285 284 282 281 280 280 279 279 279 279 279 278
316 317 319 321 321 319 319 321 326 332 344 11 39 65 77 80 78 74 70 64 57 49 39 29 20 14 9 5 0 355 350 344 334 324 313 304 299 296 293 290 290 287 279 267 265 268 275 285 295 300 302 301 297 293 291 289 288 287 286 286 285 285 285 285 285 284 284 283 282
321 323 325 327 328 326 323 325 333 347 9 45 68 77 78 75 72 70 66 60 52 43 33 21 12 2 350 337 331 326 320 314 307 301 296 290 287 285 285 288 292 292 284 264 258 263 276 288 297 301 303 302 299 295 291 290 289 289 288 287 287 286 286 285 284 283 283 282 282
326 327 327 326 329 332 334 338 351 9 32 55 63 69 71 69 70 68 63 58 48 38 25 9 344 322 305 294 289 286 289 293 293 292 291 291 291 293 296 298 299 297 289 270 265 271 280 290 298 303 304 303 302 297 292 290 289 288 287 286 285 284 284 283 283 282 281 281 281
327 327 324 321 323 330 342 355 10 16 25 46 55 65 71 72 70 65 57 46 30 9 338 310 291 282 278 278 276 278 281 285 288 293 300 305 307 309 309 306 306 299 282 269 266 270 279 290 299 304 305 304 301 297 292 288 286 284 283 282 281 281 281 281 280 280 280 280 281
325 322 321 321 325 332 346 357 7 14 29 50 59 63 64 63 60 52 35 11 335 299 283 278 276 275 274 276 279 282 284 288 295 305 312 315 316 316 314 312 317 305 271 263 263 272 285 297 304 307 306 303 300 297 292 287 284 282 281 280 280 280 280 280 280 280 280 282 283
326 322 321 325 331 345 2 15 23 34 47 52 51 47 39 24 7 347 322 296 284 276 273 272 275 274 273 272 275 281 289 298 306 312 316 320 321 321 318 314 321 322 310 300 295 298 303 307 308 308 306 304 302 297 291 286 283 281 280 280 280 281 281 281 281 282 283 285 286
334 330 328 331 338 354 15 34 44 49 49 41 30 11 346 321 305 294 284 278 276 276 276 275 275 275 273 273 282 295 306 312 316 318 319 321 322 322 319 314 317 330 340 335 325 316 312 310 310 308 307 306 304 298 290 287 285 283 283 283 283 284 284 285 286 286 287 288 288
346 347 346 344 351 7 23 37 44 41 28 2 337 316 303 295 286 280 277 278 280 283 285 284 282 282 285 294 309 320 325 324 322 320 319 320 320 320 318 314 312 318 325 326 321 315 311 309 308 308 309 310 305 298 292 290 288 287 286 286 287 287 289 290 291 291 291 291 290
350 354 358 357 9 24 33 33 25 2 334 314 303 294 290 289 285 283 284 288 291 294 298 301 302 306 314 324 329 331 329 325 321 317 315 315 315 315 314 312 309 308 310 312 311 308 306 305 306 308 310 311 305 299 295 293 291 290 290 290 290 291 293 294 295 294 293 291 290
347 349 352 358 14 22 18 8 345 321 308 301 297 294 293 292 291 294 299 302 304 307 310 314 319 323 328 331 330 327 324 320 316 312 307 305 304 305 306 306 305 302 301 303 303 302 301 302 303 307 311 312 306 302 299 297 295 294 294 294 294 295 296 296 296 294 292 290 289
345 347 351 3 6 358 338 321 312 306 303 301 300 298 298 299 304 311 316 316 315 315 317 320 322 324 325 325 322 319 317 316 314 309 301 292 289 289 292 295 297 297 298 298 299 298 298 299 301 307 311 313 308 305 302 301 299 298 297 297 298 298 297 296 295 293 291 290 290
349 353 356 354 341 325 314 311 309 308 306 305 305 306 309 314 319 323 324 321 319 318 319 320 321 321 320 318 315 312 311 312 312 308 299 287 280 277 277 281 285 290 293 295 296 297 298 300 302 307 312 313 311 308 307 304 302 301 301 301 301 300 299 297 296 295 294 293 293
355 353 347 336 326 323 322 321 319 316 313 311 312 315 320 324 325 325 324 322 321 320 320 318 317 316 315 312 309 307 305 305 306 306 301 291 285 280 276 276 281 286 291 294 297 299 301 301 302 306 310 311 312 312 310 308 306 304 303 303 303 303 301 300 298 297 295 295 294